Gallivare, Sweden

1:56 AM CEST on May 25, 2017 (GMT +0200)
Gallivare

Weather History for ESNG - March, 2013

Change the Weather History Date:

Sunday, March 10, 2013

  Actual Average Record
Temperature  
Mean Temperature 17 °F -  
Max Temperature 24 °F - - ()
Min Temperature 10 °F - - ()
Degree Days  
Heating Degree Days 48    
Moisture  
Dew Point 10 °F    
Average Humidity 69    
Maximum Humidity 80    
Minimum Humidity 58    
Precipitation  
Precipitation 0.00 in - - ()
Sea Level Pressure  
Sea Level Pressure 29.82 in    
Wind  
Wind Speed 9 mph ()    
Max Wind Speed 17 mph    
Max Gust Speed -    
Visibility 6.2 miles    
Events Snow    
T = Trace of Precipitation, MM = Missing Value Source: Averaged Metar Reports

Daily Weather History Graph

Daily Weather History Graph

Search for Another Location

Airport or City:

Trip Planner

Search our weather history database for the weather conditions in past years. The results will help you decide how hot, cold, wet, or windy it might be!

Date:

Astronomy

Mar. 10, 2013 Rise Set
Actual Time 6:17 AM CET 5:19 PM CET
Civil Twilight 5:24 AM CET 6:12 PM CET
Nautical Twilight 4:21 AM CET 7:16 PM CET
Astronomical Twilight 3:12 AM CET 8:26 PM CET
Moon 5:32 AM CET (3/10) 3:52 PM CET (3/10)
Length of Visible Light 12h 48m
Length of Day
11h 01m
Waning Crescent, 2% of the Moon is Illuminated
Mar 10
Waning Crescent
Mar 11
New
Mar 19
First Quarter
Mar 27
Full
Apr 3
Last Quarter

Hourly Weather History & Observations

Time (CET) Temp. Windchill Dew Point Humidity Pressure Visibility Wind Dir Wind Speed Gust Speed Precip Events Conditions
12:20 AM 10.4 °F -6.6 °F 1.4 °F 67% 29.98 in 6.2 mi West 16.1 mph - N/A   Unknown
12:50 AM 12.2 °F -1.0 °F 1.4 °F 62% 29.98 in 6.2 mi WNW 10.4 mph - N/A   Unknown
1:20 AM 12.2 °F -1.0 °F 1.4 °F 62% 29.95 in 6.2 mi WNW 10.4 mph - N/A   Unknown
1:50 AM 12.2 °F -1.0 °F 1.4 °F 62% 29.95 in 6.2 mi West 10.4 mph - N/A   Unknown
2:20 AM 12.2 °F -1.0 °F 3.2 °F 67% 29.95 in 6.2 mi WNW 10.4 mph - N/A   Unknown
2:50 AM 14.0 °F -0.2 °F 3.2 °F 62% 29.92 in 6.2 mi West 12.7 mph - N/A   Unknown
3:20 AM 14.0 °F 0.5 °F 3.2 °F 62% 29.92 in 6.2 mi West 11.5 mph - N/A   Unknown
3:50 AM 15.8 °F 3.4 °F 5.0 °F 62% 29.89 in 6.2 mi West 10.4 mph - N/A   Unknown
4:20 AM 14.0 °F 0.5 °F 5.0 °F 67% 29.89 in 6.2 mi West 11.5 mph - N/A   Unknown
4:50 AM 14.0 °F 0.5 °F 6.8 °F 73% 29.86 in 6.2 mi West 11.5 mph - N/A   Unknown
5:20 AM 15.8 °F 2.1 °F 6.8 °F 68% 29.86 in 6.2 mi West 12.7 mph - N/A   Unknown
5:50 AM 14.0 °F 2.9 °F 6.8 °F 73% 29.86 in 6.2 mi West 8.1 mph - N/A   Unknown
6:20 AM 17.6 °F 5.0 °F 8.6 °F 68% 29.86 in 6.2 mi WNW 11.5 mph - N/A   Unknown
6:50 AM 15.8 °F 4.2 °F 8.6 °F 73% 29.86 in 6.2 mi NW 9.2 mph - N/A   Unknown
7:20 AM 17.6 °F 5.7 °F 8.6 °F 68% 29.83 in 6.2 mi NW 10.4 mph - N/A   Unknown
7:50 AM 19.4 °F 9.5 °F 10.4 °F 68% 29.83 in 6.2 mi NNW 8.1 mph - N/A   Partly Cloudy
8:20 AM 19.4 °F 9.5 °F 10.4 °F 68% 29.83 in 6.2 mi NW 8.1 mph - N/A   Unknown
8:50 AM 21.2 °F 13.6 °F 10.4 °F 63% 29.83 in 6.2 mi WNW 5.8 mph - N/A   Unknown
9:20 AM 21.2 °F 13.6 °F 12.2 °F 68% 29.83 in 6.2 mi WNW 5.8 mph - N/A   Partly Cloudy
9:50 AM 23.0 °F 13.9 °F 12.2 °F 63% 29.80 in 6.2 mi WNW 8.1 mph - N/A   Partly Cloudy
10:20 AM 23.0 °F 17.0 °F 12.2 °F 63% 29.80 in 6.2 mi WNW 4.6 mph - N/A   Partly Cloudy
10:50 AM 23.0 °F 11.7 °F 15.8 °F 74% 29.80 in 6.2 mi West 11.5 mph - N/A   Partly Cloudy
11:20 AM 24.8 °F 15.3 °F 17.6 °F 74% 29.80 in 6.2 mi West 9.2 mph - N/A   Partly Cloudy
11:50 AM 24.8 °F 16.1 °F 17.6 °F 74% 29.80 in 6.2 mi West 8.1 mph - N/A   Partly Cloudy
12:20 PM 24.8 °F 16.1 °F 15.8 °F 69% 29.80 in 6.2 mi West 8.1 mph - N/A   Partly Cloudy
12:50 PM 24.8 °F 14.0 °F 17.6 °F 74% 29.77 in 6.2 mi West 11.5 mph - N/A   Partly Cloudy
1:20 PM 24.8 °F 15.3 °F 17.6 °F 74% 29.77 in 6.2 mi West 9.2 mph - N/A   Partly Cloudy
1:50 PM 24.8 °F 15.3 °F 19.4 °F 80% 29.77 in 6.2 mi West 9.2 mph - N/A   Mostly Cloudy
2:20 PM 24.8 °F 16.1 °F 17.6 °F 74% 29.77 in 6.2 mi West 8.1 mph - N/A   Scattered Clouds
2:50 PM 24.8 °F 16.1 °F 17.6 °F 74% 29.77 in 6.2 mi WNW 8.1 mph - N/A   Scattered Clouds
3:20 PM 24.8 °F 15.3 °F 17.6 °F 74% 29.77 in 6.2 mi WNW 9.2 mph - N/A Snow Light Snow
3:50 PM 24.8 °F 15.3 °F 17.6 °F 74% 29.77 in 6.2 mi NW 9.2 mph - N/A   Scattered Clouds
4:20 PM 24.8 °F 13.4 °F 15.8 °F 69% 29.77 in 6.2 mi NNW 12.7 mph - N/A   Scattered Clouds
4:50 PM 24.8 °F 11.5 °F 14.0 °F 64% 29.77 in 6.2 mi NNW 17.3 mph - N/A   Scattered Clouds
5:50 PM 21.2 °F 10.9 °F 14.0 °F 74% 29.77 in 6.2 mi North 9.2 mph - N/A   Mostly Cloudy
6:20 PM 21.2 °F 10.9 °F 12.2 °F 68% 29.77 in 6.2 mi NW 9.2 mph - N/A   Mostly Cloudy
6:50 PM 21.2 °F 10.1 °F 8.6 °F 58% 29.77 in 6.2 mi North 10.4 mph - N/A   Scattered Clouds
7:20 PM 19.4 °F 8.6 °F 8.6 °F 63% 29.77 in 6.2 mi North 9.2 mph - N/A   Scattered Clouds
7:50 PM 19.4 °F 9.5 °F 8.6 °F 63% 29.77 in 6.2 mi NW 8.1 mph - N/A   Scattered Clouds
8:20 PM 19.4 °F 8.6 °F 8.6 °F 63% 29.77 in 6.2 mi NNW 9.2 mph - N/A   Scattered Clouds
8:50 PM 19.4 °F 9.5 °F 8.6 °F 63% 29.77 in 6.2 mi WNW 8.1 mph - N/A   Scattered Clouds
9:20 PM 15.8 °F 7.2 °F 8.6 °F 73% 29.77 in - West 5.8 mph - N/A   Clear
9:50 PM 15.8 °F 7.2 °F 8.6 °F 73% 29.77 in - WNW 5.8 mph - N/A   Clear
10:20 PM 17.6 °F 9.3 °F 8.6 °F 68% 29.77 in 6.2 mi NNW 5.8 mph - N/A   Unknown
10:50 PM 17.6 °F 9.3 °F 8.6 °F 68% 29.77 in 6.2 mi NW 5.8 mph - N/A   Unknown
11:20 PM 15.8 °F 7.2 °F 8.6 °F 73% 29.77 in 6.2 mi WNW 5.8 mph - N/A   Unknown
11:50 PM 10.4 °F 2.2 °F 5.0 °F 79% 29.77 in 6.2 mi NNW 4.6 mph - N/A   Unknown